Theta_e
309 309 309 309 309 309 309 309 308 308 307 307 307 310 312 313 312 314 314 315 317 316 315 317 317 317 317 318 318 318 315 316 318 320 319 315 315 314 312 313 314 313 313 311 311
309 309 309 309 310 310 309 309 309 308 308 307 307 308 311 313 313 316 315 315 316 314 316 316 315 315 315 318 317 317 318 319 318 317 317 316 314 312 314 312 312 313 307 309 309
310 310 309 309 309 309 309 309 309 308 307 307 307 307 311 313 320 318 318 316 314 314 316 316 316 316 317 318 317 316 316 317 317 317 315 315 315 313 312 312 310 310 309 305 303
312 311 310 310 309 309 309 309 309 308 307 307 307 307 311 315 309 317 315 315 313 314 315 315 315 318 317 318 318 319 317 317 318 317 316 315 314 315 311 314 312 309 309 304 302
314 313 312 311 310 310 310 310 310 309 308 307 306 307 312 317 315 316 314 313 313 314 315 314 315 317 318 318 317 318 317 316 315 314 314 315 314 313 312 310 309 309 309 305 304
312 313 312 311 311 311 310 310 310 310 309 307 306 307 313 313 313 314 314 312 313 313 314 314 315 315 315 316 316 316 316 314 313 314 314 315 314 314 312 311 310 310 309 305 305
315 314 315 313 308 307 309 310 311 310 309 308 306 310 317 311 313 313 313 312 313 313 313 314 315 315 315 317 315 315 315 312 314 313 314 314 313 313 314 311 311 310 309 307 305
315 315 315 314 311 309 307 306 307 309 308 307 308 314 310 313 313 313 312 312 312 312 313 314 314 314 316 315 313 315 314 314 313 313 314 313 314 313 311 310 310 310 307 307 306
316 315 315 314 312 311 309 307 306 306 306 308 312 317 312 313 313 313 313 312 311 312 312 312 315 314 315 312 312 312 312 313 315 314 313 313 314 312 310 309 310 308 307 308 309
316 316 315 314 312 311 308 308 307 308 313 314 317 315 312 313 314 312 312 312 312 312 312 313 312 311 312 310 312 311 313 313 314 314 313 312 313 313 310 310 308 308 307 306 309
316 316 315 314 313 311 311 310 308 311 317 309 311 311 313 312 313 311 311 311 312 313 312 312 311 312 312 312 311 312 311 311 313 313 314 315 314 314 312 310 309 309 310 311 309
317 316 316 314 313 313 312 312 310 310 309 308 307 311 313 313 313 312 310 311 311 312 312 314 314 312 311 312 312 312 312 311 312 310 311 312 313 312 310 312 312 311 311 311 308
317 317 316 316 313 313 312 309 309 310 311 309 307 307 308 312 311 310 309 309 311 311 312 313 313 313 313 313 313 312 312 312 312 312 310 310 311 311 310 310 311 311 310 310 307
319 317 316 316 314 312 310 310 308 309 306 309 309 311 309 309 307 304 308 310 311 312 311 312 312 312 312 312 312 313 311 312 312 313 314 311 314 311 310 310 309 310 311 307 304
319 318 316 315 313 312 312 310 308 309 310 311 308 309 308 307 306 306 303 307 310 310 310 312 312 311 312 313 311 313 312 312 313 312 312 313 312 313 309 309 310 311 311 309 303
322 319 317 314 312 313 309 307 310 305 308 311 309 309 310 310 308 305 305 304 305 308 307 308 308 311 311 310 310 310 311 311 310 308 313 310 311 311 309 310 310 310 310 309 304
322 321 319 316 314 310 312 312 312 309 309 313 310 310 310 311 310 306 306 305 306 308 307 308 308 308 309 311 308 310 310 311 311 311 315 309 309 313 311 309 309 310 310 309 305
321 321 319 318 314 313 311 313 320 319 312 313 311 310 311 310 311 308 308 307 305 307 309 310 310 308 307 310 310 308 311 312 310 312 313 306 312 313 310 310 308 308 309 307 304
319 318 316 317 314 313 312 317 322 318 322 323 324 325 313 310 309 310 307 308 308 307 310 309 311 309 307 308 310 310 311 311 312 299 310 313 311 310 311 310 308 308 305 306 304
317 316 315 317 314 310 312 322 317 316 321 319 325 323 324 319 316 312 311 309 310 308 309 311 311 309 307 307 308 309 308 312 311 312 312 313 310 313 312 313 311 308 305 305 304
315 317 315 315 311 311 317 316 317 316 316 320 322 324 322 323 321 321 317 314 309 310 309 308 311 311 306 307 309 308 309 309 310 312 314 313 314 312 311 311 310 307 305 303 304
313 317 312 311 313 313 318 315 315 316 315 318 317 319 321 321 322 322 321 317 314 312 316 310 312 314 309 305 305 307 309 309 312 311 309 313 314 311 307 308 305 308 307 306 306
313 312 309 311 317 317 314 316 316 316 316 317 319 317 318 319 320 318 318 315 316 315 315 313 314 316 314 310 305 307 306 307 309 309 313 314 313 312 311 309 304 305 303 303 305
308 312 309 308 312 316 316 316 317 314 315 315 316 316 317 318 317 319 318 317 315 315 314 315 314 315 318 315 311 312 309 307 310 311 313 312 312 311 311 310 310 309 309 309 305
302 305 308 311 311 313 313 313 315 315 314 314 315 315 316 317 316 318 317 317 315 313 312 314 317 315 315 314 313 313 313 313 312 312 313 313 312 310 310 310 309 309 309 306 303
300 303 302 307 309 311 311 311 312 312 312 312 313 312 314 316 316 318 315 316 316 312 313 313 317 317 318 315 314 315 315 314 315 314 313 312 311 311 311 311 311 311 310 309 307
298 299 301 301 301 304 306 308 308 309 310 310 307 306 309 311 306 306 306 308 311 314 315 314 315 317 319 317 316 318 316 316 314 313 312 313 312 310 310 310 311 311 310 310 308
Wind_Speed
13 14 13 13 13 13 13 14 14 14 15 14 15 13 10 8 9 8 6 6 5 6 5 5 4 4 3 2 1 2 3 3 5 3 2 3 4 1 3 2 3 6 4 3 17
12 13 14 13 13 12 13 13 13 13 14 14 15 15 11 9 7 11 11 8 8 6 9 9 3 6 1 3 2 4 3 6 4 3 4 3 5 7 2 4 5 4 1 13 29
13 13 13 13 14 14 14 15 15 15 14 14 14 14 10 8 3 5 5 15 10 8 7 4 4 5 3 3 4 4 6 5 5 3 2 3 2 5 7 7 9 11 9 12 18
16 16 16 16 14 14 14 15 15 15 15 15 15 14 8 3 5 3 3 11 11 9 6 4 2 3 3 4 6 5 8 8 8 4 2 3 4 5 8 17 8 13 7 13 12
16 18 18 18 18 16 16 16 16 16 16 15 15 13 4 0 9 7 4 10 11 10 7 4 4 4 4 3 3 6 5 7 8 9 7 3 9 7 12 11 11 11 7 16 15
17 20 23 23 21 20 20 19 17 17 17 16 16 10 2 5 6 7 7 11 11 11 7 7 5 6 5 5 3 3 5 7 8 12 7 7 5 5 11 8 14 12 13 11 18
22 21 26 26 24 24 24 23 21 21 20 18 15 5 2 13 8 7 9 10 12 9 4 7 3 3 2 5 3 3 8 9 17 10 8 6 10 14 25 6 9 13 13 12 16
19 22 26 30 23 23 23 24 23 22 21 18 9 5 7 7 9 10 11 9 10 10 8 4 5 3 3 2 6 3 2 5 7 7 4 9 17 12 12 8 16 18 12 10 14
18 20 23 27 26 25 24 24 22 19 16 10 5 5 8 4 7 12 12 6 8 5 5 3 5 6 0 4 5 3 6 8 12 8 6 5 12 11 8 9 15 11 11 15 16
17 19 21 25 26 28 26 18 13 7 1 3 2 2 5 6 6 10 12 12 3 5 2 3 3 3 1 5 9 7 6 7 9 4 3 6 19 17 11 7 11 10 10 12 16
16 18 19 23 26 26 25 5 5 3 1 8 5 5 1 0 5 6 8 9 4 2 7 6 5 10 24 14 8 5 6 9 18 10 10 17 18 21 19 10 12 16 18 20 17
16 17 18 21 26 15 11 4 4 2 7 10 13 9 11 7 4 5 10 7 6 9 5 3 13 20 5 10 10 10 14 15 15 12 10 14 21 16 9 13 16 17 19 24 11
15 15 15 19 19 10 9 6 8 3 3 8 9 7 5 14 10 8 15 5 6 6 10 20 11 17 12 9 8 19 15 19 19 10 6 9 11 12 11 9 14 18 21 21 12
16 14 13 18 3 15 3 13 8 2 3 6 4 2 3 3 4 1 8 6 5 12 8 11 11 11 6 7 12 22 10 14 8 3 13 4 16 9 7 12 10 15 21 11 11
15 12 11 9 9 3 8 14 6 2 7 5 2 3 1 5 1 3 2 2 5 5 6 10 3 8 14 26 9 20 4 5 2 4 5 5 6 3 8 8 12 16 20 17 12
13 11 11 5 3 5 10 7 2 5 8 5 2 2 2 1 2 4 4 4 1 2 6 11 0 4 7 2 6 2 1 1 2 2 12 8 9 5 7 9 6 11 15 16 10
11 13 15 9 3 3 8 5 3 5 5 4 4 3 2 4 3 5 4 3 5 1 5 3 10 2 5 3 2 3 4 4 4 1 12 11 10 21 6 8 11 14 14 15 8
17 13 11 18 19 11 7 3 6 6 8 3 6 1 6 7 7 7 4 4 7 2 2 4 15 12 9 16 12 10 10 7 7 9 18 3 9 8 10 12 12 15 16 5 8
9 11 9 14 20 16 4 2 8 6 4 5 9 11 4 5 7 6 7 6 8 18 11 6 14 1 5 2 9 5 6 11 2 3 2 10 13 10 8 11 11 16 4 9 10
4 5 8 16 26 16 3 13 8 7 3 2 8 6 12 8 5 4 3 3 6 14 17 5 12 8 2 1 3 6 1 1 1 3 7 15 6 14 14 20 16 11 10 8 6
4 3 4 23 24 2 8 9 6 8 5 6 13 18 16 16 9 6 7 15 3 4 1 7 6 17 4 6 9 1 4 5 2 4 12 14 15 6 2 6 10 8 7 8 9
3 4 18 35 4 3 11 5 6 11 7 10 4 8 12 9 12 11 13 15 12 4 13 2 5 4 8 8 5 5 6 6 9 10 3 6 16 10 5 4 10 5 6 4 5
3 3 19 12 7 9 4 7 9 14 14 5 8 8 11 13 9 11 13 13 17 12 7 3 2 4 12 9 3 6 8 7 6 2 9 12 15 25 22 19 9 4 9 9 7
2 3 3 3 4 10 17 19 18 11 18 17 17 15 14 20 18 13 17 14 15 15 15 12 11 9 16 18 7 5 5 8 10 8 20 19 29 26 32 31 27 20 23 24 14
2 4 4 5 11 14 14 14 20 22 14 14 10 21 24 23 27 30 27 28 18 12 10 13 13 19 27 29 28 25 25 28 26 25 20 29 28 25 30 31 24 23 24 15 8
2 2 4 5 5 8 14 18 21 21 13 22 22 24 21 25 28 28 24 21 22 6 23 15 23 22 24 28 31 30 34 35 35 34 28 32 31 33 31 32 30 34 33 21 18
5 3 1 5 3 4 11 14 11 5 7 6 8 8 7 13 15 16 19 18 18 12 6 10 7 10 26 24 25 24 31 37 31 26 24 29 36 36 34 31 33 31 33 23 21
Wind_Direction
8 6 7 8 7 7 8 7 6 4 2 2 3 357 341 321 279 273 240 234 203 215 163 139 165 195 238 258 206 63 46 261 262 300 276 194 156 294 143 178 207 206 191 213 164
355 354 355 355 353 352 353 354 355 355 353 351 353 350 342 330 296 250 255 235 215 191 164 177 194 196 292 235 190 122 156 236 221 291 283 205 183 183 179 240 241 230 42 158 160
350 345 344 343 342 342 342 342 342 343 343 340 343 343 337 332 324 248 274 216 227 200 177 201 241 169 205 178 210 201 213 222 280 284 27 285 250 201 185 237 210 214 201 178 172
344 342 340 336 330 328 329 330 332 333 334 333 334 332 327 336 295 250 246 200 206 197 188 181 205 165 230 231 213 227 244 247 274 249 215 258 294 263 205 242 208 226 197 177 189
337 336 332 330 326 321 317 318 320 321 323 324 326 324 308 226 246 249 224 192 199 192 198 186 182 203 239 256 331 233 262 265 270 282 237 227 247 247 262 265 252 253 197 187 203
327 332 332 326 321 319 314 311 310 309 310 314 318 311 217 232 241 240 210 191 195 196 212 197 203 196 255 244 223 264 262 267 259 261 235 208 256 160 262 234 246 239 244 208 203
345 343 344 335 327 319 312 307 307 306 303 305 308 267 239 238 232 218 209 209 206 204 217 228 203 183 318 299 302 290 317 309 269 250 223 126 284 224 248 249 256 249 240 224 218
330 334 338 344 340 330 319 309 305 300 297 299 287 180 241 219 214 213 202 208 208 223 232 206 198 208 206 284 337 259 210 286 278 127 210 126 262 247 247 196 240 241 244 236 231
321 326 333 342 342 336 323 319 309 291 291 283 178 182 262 176 206 219 206 186 182 197 208 178 149 194 44 123 338 264 240 218 292 200 143 168 256 274 260 211 247 247 238 238 245
316 321 329 338 342 336 327 322 308 306 152 156 279 11 256 227 177 185 192 185 164 139 109 159 162 181 234 129 226 216 225 245 240 200 164 200 247 261 270 270 257 269 254 244 241
316 319 327 335 341 339 342 356 8 20 212 196 192 226 117 74 168 199 180 166 125 148 188 207 154 203 231 200 226 243 253 237 268 267 206 239 238 256 257 263 252 257 262 259 247
314 318 327 335 340 358 0 34 51 318 308 270 253 238 236 187 246 232 173 165 162 209 158 255 218 220 205 204 222 245 256 263 273 264 196 248 254 251 242 247 245 244 254 258 253
307 313 323 337 339 3 7 40 334 353 252 281 224 207 210 173 221 224 159 178 198 195 203 225 219 217 224 232 257 251 249 258 254 289 237 282 267 253 248 260 256 256 251 258 239
297 304 315 336 39 344 49 346 345 29 286 268 242 247 24 140 279 343 194 180 219 227 203 248 230 216 193 212 194 259 216 257 266 263 272 133 290 220 228 242 238 248 259 247 222
286 294 300 328 322 6 321 327 329 114 302 264 236 351 30 167 54 4 349 5 213 201 140 234 215 207 227 232 194 260 175 234 254 247 318 176 284 200 192 243 248 248 255 262 218
270 271 270 307 260 300 348 345 317 47 253 283 134 178 118 340 8 13 30 11 324 312 252 247 190 227 213 166 190 123 206 214 37 80 264 186 207 172 186 216 239 249 256 259 223
265 254 242 216 218 144 22 359 342 199 301 225 238 163 142 210 247 177 160 186 189 267 243 293 224 149 148 180 311 178 88 297 320 14 255 185 222 254 265 235 214 234 245 242 185
262 249 248 232 217 218 85 60 200 208 233 352 34 89 202 169 234 191 173 242 242 255 324 259 283 158 187 202 191 192 183 176 209 256 276 75 251 269 232 233 231 223 229 217 170
282 253 212 217 208 187 110 189 221 181 244 12 346 321 286 272 229 154 208 215 217 190 206 214 263 312 194 173 152 170 182 222 339 76 4 261 278 284 249 275 268 243 230 212 191
252 218 198 219 193 156 144 233 218 213 59 56 257 200 263 251 348 340 215 226 236 195 219 234 272 196 123 88 318 174 172 95 270 218 248 272 287 277 292 284 289 251 206 210 191
248 258 214 187 156 183 221 223 245 214 215 231 243 245 240 270 232 212 245 306 323 3 310 341 263 266 132 192 190 272 255 228 235 185 242 258 271 137 210 315 293 246 203 193 205
230 243 168 157 189 206 232 215 215 250 227 235 241 264 257 270 272 257 230 217 262 69 309 234 299 300 238 281 193 157 219 230 248 265 240 278 269 301 325 10 317 172 188 178 189
244 204 178 185 219 225 205 254 226 253 247 211 225 222 246 250 253 224 237 248 253 239 202 165 194 277 317 301 249 203 201 205 232 139 244 265 266 276 280 280 222 298 284 276 261
286 231 176 219 244 247 252 251 250 226 250 245 257 262 259 259 257 262 256 243 225 236 191 195 202 198 236 238 241 267 258 258 248 250 257 249 258 264 268 261 262 268 265 265 253
250 255 205 212 231 234 247 262 261 262 243 248 230 235 249 265 264 260 252 258 252 230 193 189 235 216 228 241 257 254 253 258 255 252 248 253 251 251 257 270 275 275 271 269 239
266 308 352 297 297 232 221 241 254 264 256 270 273 281 281 267 264 272 285 254 240 240 222 223 249 237 236 229 230 239 251 252 252 250 253 256 260 255 256 263 271 269 270 280 271
277 359 290 274 306 292 258 264 271 344 272 290 358 332 314 297 318 298 286 279 277 297 297 255 251 224 244 233 238 244 241 246 250 253 248 251 249 254 262 261 261 272 279 280 266